When you browse on this site, cookies collect data to enhance your experience and personalize the content and advertising you see.
Visit our Privacy Policy to learn more. By continuing to use the site, you agree to this use of cookies and data.
  • In Hungary
  • List of Countries
  • For 7 days
  • Water Temperature
  • Satellite Maps
  • Weather Map
  • News
  • Weather Widgets
  • user-avatar
    Login

    Hourly Weather Stoneham

    Today, 19 December, Wednesday

    Time Temperature Precipitation Wind Pressure Humidity
    00:00 -7°C° 0 mm 5 mps 759 mmHg 48%
    01:00 -7°C° 0 mm 4 mps 759 mmHg 48%
    02:00 -7°C° 0 mm 4 mps 760 mmHg 47%
    03:00 -7°C° 0 mm 4 mps 760 mmHg 47%
    04:00 -6°C° 0 mm 3 mps 760 mmHg 47%
    05:00 -6°C° 0 mm 3 mps 760 mmHg 48%
    06:00 -6°C° 0 mm 3 mps 760 mmHg 48%
    07:00 -6°C° 0 mm 3 mps 760 mmHg 48%
    08:00 -5°C° 0 mm 3 mps 760 mmHg 44%
    09:00 -2°C° 0 mm 3 mps 760 mmHg 40%
    10:00 -1°C° 0 mm 2 mps 761 mmHg 35%
    11:00 +1°C° 0 mm 2 mps 760 mmHg 33%
    12:00 +2°C° 0 mm 2 mps 760 mmHg 30%
    13:00 +4°C° 0 mm 2 mps 759 mmHg 27%
    14:00 +3°C° 0 mm 2 mps 759 mmHg 32%
    15:00 +2°C° 0 mm 2 mps 759 mmHg 37%
    16:00 +1°C° 0 mm 2 mps 759 mmHg 41%
    17:00 +1°C° 0 mm 2 mps 759 mmHg 44%
    18:00 -1°C° 0 mm 2 mps 760 mmHg 47%
    19:00 -1°C° 0 mm 3 mps 760 mmHg 50%
    20:00 -1°C° 0 mm 3 mps 760 mmHg 51%
    21:00 -1°C° 0 mm 3 mps 760 mmHg 51%
    22:00 -1°C° 0 mm 3 mps 760 mmHg 51%
    23:00 -2°C° 0 mm 3 mps 760 mmHg 54%

    Tomorrow, 20 December, Thursday

    Time Temperature Precipitation Wind Pressure Humidity
    00:00 -2°C° 0 mm 3 mps 760 mmHg 56%
    01:00 -2°C° 0 mm 3 mps 760 mmHg 58%
    02:00 -2°C° 0 mm 3 mps 760 mmHg 62%
    03:00 -2°C° 0 mm 3 mps 760 mmHg 66%
    04:00 -2°C° 0 mm 3 mps 760 mmHg 70%
    05:00 -2°C° 0 mm 3 mps 760 mmHg 74%
    06:00 -2°C° 0 mm 3 mps 760 mmHg 78%
    07:00 -2°C° 0 mm 2 mps 761 mmHg 81%
    08:00 +1°C° 0 mm 2 mps 761 mmHg 75%
    09:00 +1°C° 0 mm 3 mps 761 mmHg 69%
    10:00 +3°C° 0 mm 3 mps 761 mmHg 63%
    11:00 +5°C° 0 mm 2 mps 761 mmHg 61%
    12:00 +6°C° 0 mm 2 mps 760 mmHg 59%
    13:00 +8°C° 0 mm 2 mps 760 mmHg 56%
    14:00 +6°C° 0 mm 2 mps 760 mmHg 65%
    15:00 +5°C° 0 mm 2 mps 760 mmHg 73%
    16:00 +5°C° 0 mm 1 mps 760 mmHg 81%
    17:00 +3°C° 0 mm 2 mps 760 mmHg 84%
    18:00 +3°C° 0 mm 2 mps 760 mmHg 87%
    19:00 +2°C° 0 mm 2 mps 760 mmHg 91%
    20:00 +2°C° 0 mm 2 mps 760 mmHg 92%
    21:00 +2°C° 0 mm 2 mps 759 mmHg 92%
    22:00 +2°C° 0 mm 2 mps 759 mmHg 93%
    23:00 +3°C° 0 mm 2 mps 759 mmHg 94%

    Day after tomorrow, 21 December, Friday

    Time Temperature Precipitation Wind Pressure Humidity
    00:00 +3°C° 0 mm 2 mps 758 mmHg 94%
    01:00 +3°C° 0 mm 2 mps 757 mmHg 94%
    02:00 +3°C° 1 mm 3 mps 756 mmHg 95%
    03:00 +4°C° 1 mm 3 mps 755 mmHg 96%
    04:00 +5°C° 1 mm 4 mps 754 mmHg 97%
    05:00 +7°C° 2.9 mm 5 mps 753 mmHg 96%
    06:00 +8°C° 2.9 mm 6 mps 752 mmHg 95%
    07:00 +9°C° 2.9 mm 7 mps 751 mmHg 95%
    08:00 +11°C° 5.1 mm 8 mps 750 mmHg 94%
    09:00 +12°C° 5.1 mm 8 mps 749 mmHg 93%
    10:00 +13°C° 5.1 mm 9 mps 748 mmHg 92%
    11:00 +15°C° 1.9 mm 8 mps 747 mmHg 92%
    12:00 +16°C° 1.9 mm 8 mps 746 mmHg 92%
    13:00 +17°C° 1.9 mm 7 mps 745 mmHg 92%
    14:00 +17°C° 1.7 mm 8 mps 745 mmHg 89%
    15:00 +18°C° 1.7 mm 9 mps 744 mmHg 86%
    16:00 +18°C° 1.7 mm 10 mps 743 mmHg 84%
    17:00 +17°C° 0.8 mm 9 mps 743 mmHg 87%
    18:00 +17°C° 0.8 mm 7 mps 742 mmHg 90%
    19:00 +16°C° 0.8 mm 6 mps 742 mmHg 93%
    20:00 +16°C° 0.7 mm 6 mps 741 mmHg 93%
    21:00 +15°C° 0.7 mm 6 mps 741 mmHg 93%
    22:00 +15°C° 0.7 mm 6 mps 741 mmHg 93%
    23:00 +14°C° 0.1 mm 5 mps 740 mmHg 90%

    22 December, Saturday

    Time Temperature Precipitation Wind Pressure Humidity
    00:00 +13°C° 0.1 mm 5 mps 740 mmHg 87%
    01:00 +12°C° 0.1 mm 5 mps 740 mmHg 84%
    02:00 +12°C° 0.2 mm 5 mps 740 mmHg 85%
    03:00 +11°C° 0.2 mm 4 mps 740 mmHg 86%
    04:00 +10°C° 0.2 mm 4 mps 740 mmHg 88%
    05:00 +8°C° 0.1 mm 4 mps 740 mmHg 85%
    06:00 +7°C° 0.1 mm 5 mps 740 mmHg 83%
    07:00 +7°C° 0.1 mm 5 mps 741 mmHg 80%
    08:00 +7°C° 0 mm 5 mps 740 mmHg 79%
    09:00 +7°C° 0 mm 6 mps 740 mmHg 79%
    10:00 +8°C° 0 mm 6 mps 740 mmHg 78%
    11:00 +8°C° 0.1 mm 6 mps 740 mmHg 74%
    12:00 +8°C° 0.1 mm 6 mps 740 mmHg 71%
    13:00 +8°C° 0.1 mm 7 mps 739 mmHg 67%
    14:00 +7°C° 0 mm 6 mps 740 mmHg 67%
    15:00 +7°C° 0 mm 6 mps 741 mmHg 67%
    16:00 +7°C° 0 mm 6 mps 741 mmHg 67%
    17:00 +5°C° 0 mm 6 mps 742 mmHg 68%
    18:00 +5°C° 0 mm 6 mps 743 mmHg 69%
    19:00 +5°C° 0 mm 5 mps 744 mmHg 70%
    20:00 +4°C° 0 mm 6 mps 744 mmHg 71%
    21:00 +3°C° 0 mm 6 mps 745 mmHg 71%
    22:00 +3°C° 0 mm 6 mps 745 mmHg 71%
    23:00 +3°C° 0 mm 6 mps 746 mmHg 70%

    23 December, Sunday

    Time Temperature Precipitation Wind Pressure Humidity
    00:00 +2°C° 0 mm 6 mps 746 mmHg 70%
    01:00 +2°C° 0 mm 6 mps 746 mmHg 70%
    02:00 +2°C° 0 mm 6 mps 747 mmHg 70%
    03:00 +2°C° 0 mm 6 mps 747 mmHg 71%
    04:00 +1°C° 0 mm 6 mps 748 mmHg 71%
    05:00 +1°C° 0 mm 6 mps 748 mmHg 71%
    06:00 +1°C° 0 mm 5 mps 749 mmHg 71%
    07:00 +1°C° 0 mm 5 mps 749 mmHg 71%
    08:00 +1°C° 0 mm 6 mps 750 mmHg 66%
    09:00 +2°C° 0 mm 6 mps 750 mmHg 62%
    10:00 +3°C° 0 mm 6 mps 751 mmHg 57%
    11:00 +3°C° 0 mm 6 mps 751 mmHg 56%
    12:00 +4°C° 0 mm 6 mps 751 mmHg 55%
    13:00 +4°C° 0 mm 6 mps 751 mmHg 54%
    14:00 +3°C° 0 mm 6 mps 752 mmHg 56%
    15:00 +2°C° 0 mm 5 mps 753 mmHg 57%
    16:00 +2°C° 0 mm 5 mps 753 mmHg 59%
    17:00 +1°C° 0 mm 5 mps 754 mmHg 61%
    18:00 0°C° 0 mm 5 mps 754 mmHg 63%
    19:00 -1°C° 0 mm 5 mps 755 mmHg 64%
    20:00 -1°C° 0 mm 5 mps 755 mmHg 64%
    21:00 -2°C° 0 mm 4 mps 756 mmHg 63%
    22:00 -2°C° 0 mm 4 mps 756 mmHg 63%
    23:00 -3°C° 0 mm 4 mps 756 mmHg 61%

    24 December, Monday

    Time Temperature Precipitation Wind Pressure Humidity
    00:00 -3°C° 0 mm 4 mps 756 mmHg 60%
    01:00 -3°C° 0 mm 4 mps 756 mmHg 58%
    02:00 -3°C° 0 mm 4 mps 756 mmHg 57%
    03:00 -3°C° 0 mm 4 mps 756 mmHg 56%
    04:00 -3°C° 0 mm 4 mps 755 mmHg 56%
    05:00 -3°C° 0 mm 4 mps 756 mmHg 56%
    06:00 -2°C° 0 mm 4 mps 756 mmHg 56%
    07:00 -2°C° 0 mm 4 mps 756 mmHg 56%
    08:00 -1°C° 0 mm 5 mps 756 mmHg 53%
    09:00 -1°C° 0 mm 5 mps 756 mmHg 51%
    10:00 0°C° 0 mm 5 mps 756 mmHg 49%
    11:00 +1°C° 0 mm 6 mps 756 mmHg 47%
    12:00 +1°C° 0 mm 6 mps 755 mmHg 45%
    13:00 +2°C° 0 mm 6 mps 755 mmHg 43%
    14:00 +1°C° 0 mm 6 mps 755 mmHg 46%
    15:00 +1°C° 0 mm 5 mps 755 mmHg 48%
    16:00 0°C° 0 mm 5 mps 756 mmHg 51%
    17:00 0°C° 0 mm 5 mps 756 mmHg 55%
    18:00 -1°C° 0 mm 5 mps 757 mmHg 60%
    19:00 -1°C° 0 mm 5 mps 758 mmHg 65%
    20:00 -2°C° 0 mm 5 mps 758 mmHg 61%
    21:00 -2°C° 0 mm 5 mps 758 mmHg 57%
    22:00 -4°C° 0 mm 6 mps 759 mmHg 53%
    23:00 -4°C° 0 mm 6 mps 759 mmHg 51%
    Show more